STARLINK-3869 (52547 NORAD) Tracking and Keplerian Element Data

This shows tracking and keplerian element data for the satellite.

Feedback or suggestion? Click here.




ElementValue
Catalog52547
NameSTARLINK-3869
Epoch Orbit130
Epoch Day167.08334491
Epoch Year2022
RAAN132.2544
Inclination53.2171
Eccentricity0.0001843
Argument of Perigee38.652
Mean Anonmoly97.8659
Mean Motion15.32056041
Decay Rate-0.00828033
L11 52547U 22051Q 22167.08334491 -.00828033 00000+0 -28543-1 0 9991
L22 52547 53.2171 132.2544 0001843 38.6520 97.8659 15.32056041 1300

Live tracking and technical data element details for STARLINK-3869 (NORAD 52547). STARLINK-3869 can be tracked NOW for your location showing map with azimuth and elevation plus other details from your city location.

Track the satellite on the map from your city or location and see movement details for azimuth, elevation, latitude, longitude, range, height, and movement on the map or in text.







IsCatalogInMostPopularTable: catalog: 52547, numindb: 3
Update: records affected: 1



GetName: 52547 STARLINK-3869

Hit Count: updated at: Mon, 27 Jun 2022 06:32:47 GMT